| Date | Time | Temp. (oF) | Dew Point (oF) | Rel. Hum. (%) | Press. (in.) | Wind Dir. | Wind Speed (mph) | Hourly Rainfall (in.) |
|
|---|---|---|---|---|---|---|---|---|---|
| 1 | 02/04 | 00:00 | 23 | 17 | 80 | 30.41 | SSW | 0 | 0.00 |
| 2 | 02/03 | 23:00 | 23 | 17 | 79 | 30.40 | WSW | 1 | 0.00 |
| 3 | 02/03 | 22:00 | 24 | 16 | 73 | 30.39 | WSW | 1 | 0.00 |
| 4 | 02/03 | 21:00 | 25 | 16 | 71 | 30.38 | NW | 0 | 0.00 |
| 5 | 02/03 | 20:00 | 27 | 16 | 63 | 30.39 | NW | 0 | 0.00 |
| 6 | 02/03 | 19:00 | 27 | 14 | 58 | 30.38 | WNW | 3 | 0.00 |
| 7 | 02/03 | 18:00 | 28 | 13 | 54 | 30.33 | W | 2 | 0.00 |
| 8 | 02/03 | 17:00 | 29 | 13 | 51 | 30.31 | NW | 4 | 0.00 |
| 9 | 02/03 | 16:00 | 29 | 12 | 49 | 30.30 | WNW | 7 | 0.00 |
| 10 | 02/03 | 15:00 | 29 | 13 | 52 | 30.28 | WNW | 6 | 0.00 |
| 11 | 02/03 | 14:00 | 29 | 13 | 52 | 30.29 | NW | 6 | 0.00 |
| 12 | 02/03 | 13:00 | 28 | 12 | 52 | 30.31 | W | 11 | 0.00 |
| 13 | 02/03 | 12:00 | 26 | 12 | 55 | 30.32 | NW | 8 | 0.00 |
| 14 | 02/03 | 11:00 | 25 | 11 | 56 | 30.35 | NW | 7 | 0.00 |
| 15 | 02/03 | 10:00 | 25 | 12 | 59 | 30.34 | WNW | 9 | 0.00 |
| 16 | 02/03 | 09:00 | 23 | 10 | 59 | 30.34 | WSW | 7 | 0.00 |
| 17 | 02/03 | 08:00 | 23 | 11 | 61 | 30.33 | W | 5 | 0.00 |
| 18 | 02/03 | 07:00 | 23 | 11 | 62 | 30.29 | WNW | 2 | 0.00 |
| 19 | 02/03 | 06:00 | 22 | 10 | 61 | 30.25 | WNW | 9 | 0.00 |
| 20 | 02/03 | 05:00 | 23 | 11 | 60 | 30.22 | WNW | 6 | 0.00 |
| 21 | 02/03 | 04:00 | 23 | 11 | 62 | 30.19 | WNW | 12 | 0.00 |
| 22 | 02/03 | 03:00 | 23 | 11 | 61 | 30.18 | WNW | 16 | 0.00 |
| 23 | 02/03 | 02:00 | 23 | 11 | 62 | 30.18 | NW | 8 | 0.00 |
| 24 | 02/03 | 01:00 | 24 | 12 | 62 | 30.19 | WSW | 9 | 0.00 |